Regional Weather Roundup
Issued by NWS

Home | Current Version | Previous Version | Text Only | Print | Product List | Glossary On
Versions: 1 2 3 4 5 6 7 8 9 10 11 12 13 14 15 16 17 18 19 20 21 22 23 24 25 26 27 28 29 30 31 32 33 34 35 36 37 38 39 40 41 42 43 44 45 46 47 48 49 50
479
ASUS43 KLMK 051010
RWRKY
KENTUCKY REGIONAL WEATHER ROUNDUP
NATIONAL WEATHER SERVICE LOUISVILLE KY
600 AM EDT THU MAY 05 2016

NOTE "FAIR" INDICATES FEW OR NO CLOUDS BELOW 12,000 FEET
WITH NO SIGNIFICANT WEATHER AND/OR OBSTRUCTIONS TO VISIBILITY.

KYZ001>023-026-027-061>063-070>075-051100-
WESTERN AND SOUTH CENTRAL KENTUCKY

CITY           SKY/WX    TMP DP  RH WIND       PRES   REMARKS
PADUCAH        CLEAR     46  41  82 W8        29.83S
HENDERSON      CLEAR     48  39  71 W8        29.79F
OWENSBORO      CLEAR     48  44  86 W8        29.79S
HOPKINSVILLE   PTCLDY    46  42  86 W8        29.80F
BOWLING GREEN  CLOUDY    47  42  83 SW7       29.77F
GLASGOW        LGT RAIN  45  44  97 N6        29.78S
$$

KYZ024-025-028>034-038-045-046-053-051100-
NORTH CENTRAL KENTUCKY

CITY           SKY/WX    TMP DP  RH WIND       PRES   REMARKS
LOUISVILLE/SDF LGT RAIN  47  41  80 NW16      29.75S
LOUISVILLE/LOU LGT RAIN  47  42  83 NW12G17   29.75S
FORT KNOX      CLOUDY    45  43  93 W6        29.72F
$$

KYZ035>037-039>044-047>052-055>060-089>105-051100-
NORTHEAST KENTUCKY

CITY           SKY/WX    TMP DP  RH WIND       PRES   REMARKS
LEXINGTON      LGT RAIN  44  40  85 NW9       29.73R
COVINGTON      CLOUDY    42  38  85 N6        29.73R
FRANKFORT      LGT RAIN  44  39  82 VRB7      29.73R
$$

KYZ054-064>069-076>088-106>120-051100-
SOUTHEAST KENTUCKY

CITY           SKY/WX    TMP DP  RH WIND       PRES   REMARKS
JACKSON        CLOUDY    41  40  96 CALM      29.72S FOG
LONDON         MOCLDY    42  40  92 CALM      29.73F
SOMERSET       CLOUDY    43  43 100 CALM      29.76S
MIDDLESBORO    PTCLDY    41  41 100 CALM      29.75S
MONTICELLO     LGT RAIN  45  43  93 W14       29.78S
$$





USA.gov is the U.S. government's official web portal to all federal, state and local government web resources and services.